Home   Weather   Hialeah   Past weeks

Flag for USA Past Weather in Hialeah, Florida, USA — Yesterday and Last 2 Weeks

Now
74 °F

Sunny.


Feels Like: 76 °F
Forecast: 61 / 84 °F
Wind: No wind

Location: Opa Locka Airport

Current Time: Jan 19, 2017 at 10:30:23 am

Latest Report: Jan 19, 2017 at 9:53 am


Visibility: 10 mi

Pressure: 30.11 "Hg

Humidity: 69%

Dew Point: 63 °F

Location of HialeahLocation

Past Weather in Hialeah — Graph

°F

Hialeah Temperature Yesterday

Maximum temperature yesterday: 81 °F (at 3:53 pm)
Minimum temperature yesterday: 63 °F (at 6:53 am)
Average temperature yesterday: 72 °F

High & Low Weather Summary for the Past Weeks

 TemperatureHumidityPressure
High82 °F (Jan 4, 2:53 pm)97% (Jan 4, 8:00 am)30.51 "Hg (Jan 4, 8:00 am)
Low49 °F (Jan 8, 6:53 am)33% (Jan 10, 11:53 am)29.85 "Hg (Jan 4, 2:53 pm)
Average71 °F68%30.22 "Hg
* Reported Jan 4 8:00 am — Jan 19 8:53 am, Hialeah, Weather by CustomWeather, © 2017

Note: Actual official high and low records may vary slightly from our data, if they occured in-between our weather recording intervals... More about our weather records

Advertising

Hialeah Weather History for the Previous 24 Hours

Scroll right to see more
 ConditionsComfort  
Time TempWeatherWind HumidityBarometerVisibility
8:53 am
Thu, Jan 19
69 °FSunny.3 mph81%30.10 "Hg10 mi
7:53 am64 °FSunny.3 mph94%30.08 "Hg10 mi
6:53 am62 °FClear.3 mph90%30.07 "Hg10 mi
5:53 am63 °FClear.No wind87%30.07 "Hg10 mi
4:53 am64 °FClear.3 mph87%30.07 "Hg10 mi
3:53 am65 °FClear.5 mph85%30.07 "Hg10 mi
2:53 am65 °FClear.No wind85%30.07 "Hg10 mi
1:53 am66 °FClear.5 mph84%30.08 "Hg10 mi
12:53 am67 °FClear.No wind81%30.09 "Hg10 mi
11:53 pm
Wed, Jan 18
67 °FClear.5 mph81%30.11 "Hg10 mi
10:53 pm68 °FClear.No wind78%30.12 "Hg10 mi
9:53 pm69 °FClear.No wind76%30.13 "Hg10 mi
8:53 pm71 °FClear.6 mph71%30.13 "Hg10 mi
7:53 pm74 °FClear.3 mph64%30.14 "Hg10 mi
6:53 pm75 °FClear.7 mph62%30.13 "Hg10 mi
5:53 pm77 °FPassing clouds.8 mph56%30.12 "Hg10 mi
4:53 pm79 °FScattered clouds.3 mph54%30.11 "Hg10 mi
3:53 pm81 °FPartly sunny.No wind53%30.11 "Hg10 mi
2:53 pm80 °FScattered clouds.No wind51%30.11 "Hg10 mi
1:53 pm80 °FScattered clouds.5 mph51%30.11 "Hg10 mi
12:53 pm79 °FPassing clouds.8 mph54%30.14 "Hg10 mi
11:53 am78 °FPartly sunny.8 mph60%30.17 "Hg10 mi
10:53 am80 °FSunny.8 mph51%30.20 "Hg10 mi
Weather by CustomWeather, © 2017

See weather overviewHow to use our weather pages